Regional Weather Roundup
Issued by NWS

Home | Current Version | Previous Version | Graphics & Text | Print | Product List | Glossary Off
Versions: 1 2 3 4 5 6 7 8 9 10 11 12 13 14 15 16 17 18 19 20 21 22 23 24 25 26 27 28 29 30 31 32 33 34 35 36 37 38 39 40 41 42 43 44 45 46 47 48 49 50

000
ASUS43 KMKX 270220
RWRWI

WISCONSIN REGIONAL WEATHER ROUNDUP
NATIONAL WEATHER SERVICE MILWAUKEE/SULLIVAN WI
800 PM CST MON JAN 26 2015

NOTE: "FAIR" INDICATES FEW OR NO CLOUDS BELOW 12,000 FEET WITH NO
SIGNIFICANT WEATHER AND/OR OBSTRUCTIONS TO VISIBILITY.

WIZ001-002-006>008-014>016-023>028-270300-
NORTHWEST WISCONSIN

CITY           SKY/WX    TMP DP  RH WIND       PRES   REMARKS
SUPERIOR ARPT  CLOUDY    31  26  80 N5        29.91R WCI  26
ASHLAND        CLOUDY    24  22  91 NW3       29.90R
HAYWARD        CLOUDY    25  23  92 CALM      29.85R FOG
SIREN          CLOUDY    33  32  96 N7        29.89R WCI  27
CUMBERLAND     LGT SNOW  30  28  93 N5        29.85R WCI  25
RICE LAKE      CLOUDY    27  26  94 CALM      29.87R FOG
CHETEK         CLOUDY    26  25  96 CALM      29.86R
LADYSMITH      CLOUDY    24  23  93 CALM      29.87R
EAU CLAIRE     CLOUDY    27  25  92 CALM      29.86R
MENOMONIE      CLOUDY    30  29  96 CALM      29.86R FOG
NEW RICHMOND   CLOUDY    36  30  77 NW9       29.87R WCI  29
OSCEOLA        CLOUDY    38  31  75 NW12      29.91R WCI  30
$$

WIZ003>005-009-010-017-018-270300-
NORTH CENTRAL WISCONSIN

CITY           SKY/WX    TMP DP  RH WIND       PRES   REMARKS
MANITOWISH WTR CLOUDY    19  17  92 CALM      29.83S
ARBOR VITAE    FLURRIES  22  19  89 CALM      29.84R
WOODRUFF       FLURRIES  22  19  89 CALM      29.84R
RHINELANDER    CLOUDY    19  17  92 CALM      29.84R
EAGLE RIVER    FLURRIES  19  16  86 CALM      29.84R
LAND O LAKES   FLURRIES  20  17  90 CALM      29.85R
PHILLIPS       CLOUDY    20  18  90 CALM      29.83R
TOMAHAWK       CLOUDY    19  17  91 CALM      29.85R
MEDFORD        CLOUDY    21  19  93 CALM      29.83S
MERRILL        CLOUDY    20  19  94 CALM      29.86R
$$

WIZ029-030-035-036-043>047-270300-
CENTRAL WISCONSIN

CITY           SKY/WX    TMP DP  RH WIND       PRES   REMARKS
WAUSAU         LGT SNOW  21  19  92 SE3       29.84R FOG
MOSINEE        LGT SNOW  21  21 100 CALM      29.85S
MARSHFIELD     CLOUDY    23  21  92 CALM      29.85R
STEVENS POINT  CLOUDY    20  19  96 CALM      29.86S FOG
WAUPACA        LGT SNOW  26  23  89 E3        29.88S
WAUTOMA        LGT SNOW  24  23  96 CALM      29.88S FOG
WISC RAPIDS    LGT SNOW  23  20  88 CALM      29.87R FOG
CAMP DOUGLAS   FLURRIES  25  25 100 E1        29.86R
$$

WIZ011>013-019>022-031-037>040-048>050-270300-
NORTHEAST WISCONSIN

CITY           SKY/WX    TMP DP  RH WIND       PRES   REMARKS
ANTIGO         LGT SNOW  19  18  96 SE6       29.84R WCI  11
SHAWANO        LGT SNOW  26  23  89 CALM      29.89F
OCONTO         CLOUDY    25  22  89 CALM      29.91S
STURGEON BAY   CLOUDY    25  18  74 SE9       29.94S WCI  15
GREEN BAY      LGT SNOW  25  22  88 CALM      29.91R FOG
MANITOWOC      MIX PCPN  27  24  89 SE13      29.92R WCI  16
APPLETON       LGT SNOW  23  23 100 SE6       29.89R VSB 1   WCI  16
CLINTONVILLE   LGT SNOW  25  23  93 SE5       29.88F WCI  19
OSHKOSH        CLOUDY    24  21  88 SE3       29.88S
$$

WIZ032>034-041-042-053>061-270300-
SOUTHWEST WISCONSIN

CITY           SKY/WX    TMP DP  RH WIND       PRES   REMARKS
LA CROSSE      CLOUDY    30  26  85 S3        29.86R
SPARTA         CLOUDY    27  26  99 CALM      29.87R FOG
VIROQUA        CLOUDY    26  26 100 CALM      29.83R
BOSCOBEL       CLOUDY    27  24  89 CALM      29.88R FOG
PRAIRIE DU CHI CLOUDY    29  26  86 CALM      29.87R FOG
PLATTEVILLE    CLOUDY    26  25  96 CALM      29.85S
$$

WIZ056-057-062-063-064-067-068-270300-
SOUTH CENTRAL WISCONSIN

CITY           SKY/WX    TMP DP  RH WIND       PRES   REMARKS
REEDSBURG      MIX PCPN  24  23  96 CALM      29.86R
BARABOO/DELLS  MIX PCPN  23  21  93 CALM      29.85S
LONE ROCK      CLOUDY    25  23  92 E3        29.88S
MINERAL POINT  CLOUDY    27  25  93 SE3       29.84F FOG
MADISON        LGT SNOW  24  22  91 S6        29.87R FOG     WCI  17
MIDDLETON      CLOUDY    26  25  96 S5        29.87S WCI  20
WATERTOWN      LGT SNOW  24  24  99 S3        29.88R
MONROE         CLOUDY    25  25 100 S5        29.85S FOG     WCI  19
JANESVILLE     CLOUDY    27  25  93 S6        29.88S FOG     WCI  20
$$

WIZ051-052-058>065-066-070>072-270300-
SOUTHEAST WISCONSIN

CITY           SKY/WX    TMP DP  RH WIND       PRES   REMARKS
MILWAUKEE      LGT SNOW  26  22  84 S6        29.90S WCI  19
WAUKESHA       LGT SNOW  23  21  93 SE7       29.89R WCI  15
MILWAUKEE/TIMM LGT SNOW  25  21  86 SE7       29.90R WCI  17
RACINE         LGT SNOW  26  22  84 S5        29.91S FOG     WCI  20
BURLINGTON     LGT SNOW  23  22  96 S3        29.89S
KENOSHA        LGT SNOW  26  23  88 S3        29.89S FOG
FOND DU LAC    LGT SNOW  24  21  88 S3        29.89R FOG
SHEBOYGAN      LGT SNOW  26  21  81 S5        29.90R WCI  20
WEST BEND      CLOUDY    25  21  86 CALM      29.88S
JUNEAU         LGT SNOW  24  23  95 S5        29.89R WCI  18
$$

LSZ147-162-270300-
LAKE SUPERIOR

STATION/POSITION TIME  TEMP    WIND        PRES    WAVE
                       AIR SEA DIR/SP/G            HT/PER
                 (UTC) (F)     (DEG/KT/KT) (MB)    (FT/S)
DEVILS ISLAND    0200   27      10/  5/  6 1013.4R
PORT WING        0100   27      80/  2/  4 1011.9
SAXON HARBOR     0100   24        CALM     1011.5R
$$

LMZ867-665-643>646-270300-
LAKE MICHIGAN

STATION/POSITION TIME  TEMP    WIND        PRES    WAVE
                       AIR SEA DIR/SP/G            HT/PER
                 (UTC) (F)     (DEG/KT/KT) (MB)    (FT/S)
NORTHPORT PIER   0120   26     120/ 11/ 15 1014.2R
SISTER BAY       0113   25     150/  6/  9   N/A
KEWAUNEE LAKESHO 0100   28     170/ 13/ 18 1012.2R
SHEBOYGAN LAKESH 0200   27     140/ 17/ 20 1013.7R
PORT WASHINGTON  0100   28     160/  9/ 12 1013.5
MILWAUKEE LAKESH 0200   26     190/  6/  7   N/A
KENOSHA   LAKESH 0200   27     180/  5/  7 1012.5F
$$

TC  - TEMPERATURE IN CELSIUS
VSB - VISIBILITY IN STATUTE MILES
WCI - WIND CHILL INDEX
HX  - HEAT INDEX



USA.gov is the U.S. government's official web portal to all federal, state and local government web resources and services.